Simultaneous Nadir Overpasses (SNOs) Predictions

Prediction of SNOs between GOES-14 and NOAA-20 Satellite Orbit:

Table of predicted SNOs for the next 14.0 days since TLE Epoch: 8/6/2022
Index Date Time (GOES-14) GOES-14 Lat,Lon NOAA-20 Lat,Lon Distance(km) Time Diff (sec)
1 08/07/2022 08:39:02 -0.42,-104.44 0.40,-108.10 417.25 80
2 08/08/2022 08:17:37 -0.41,-104.43 -0.62,-103.57 98.45 80
3 08/09/2022 20:39:32 0.43,-104.67 -0.54,-108.87 480.27 80
4 08/10/2022 20:23:26 0.43,-104.67 0.48,-104.34 36.79 80
5 08/13/2022 08:26:27 -0.44,-104.42 -0.31,-105.07 73.94 80
6 08/14/2022 08:05:01 -0.43,-104.41 -1.27,-100.53 442.16 80
7 08/15/2022 20:26:57 0.45,-104.65 0.18,-105.85 136.44 80
8 08/16/2022 20:10:52 0.44,-104.66 1.20,-101.31 381.22 80
9 08/18/2022 08:32:38 -0.46,-104.44 -0.01,-106.58 243.55 80
10 08/19/2022 08:11:12 -0.45,-104.43 -0.97,-102.03 272.45 80
